Tracking 28531 objects as of 2-Mar-2024
HD Live streaming from Space Station
objects crossing your sky now

FLOCK 4Q 22

Track FLOCK 4Q 22 now!
10-day predictions
FLOCK 4Q 22 is classified as:


NORAD ID: 58306
Int'l Code: 2023-174BC
Perigee: 515.7 km
Apogee: 529.8 km
Inclination: 97.5 °
Period: 94.9 minutes
Semi major axis: 6893 km
RCS: Unknown
Launch date: November 11, 2023
Source: United States (US)
Launch site: AIR FORCE WESTERN TEST RANGE (AFWTR)
Your satellite tracking list
Your tracking list is empty




NASA's NSSDC Master Catalog

Two Line Element Set (TLE):
1 58306U 23174BC  24062.15468654  .00011208  00000-0  57315-3 0  9998
2 58306  97.4627 138.2558 0010266 230.9866 129.0454 15.16770556 17477
Source of the keplerian elements: AFSPC